SCP
0 0 0 0 0 0 0 0 0 0 0 0 0 0 0 0 0 0 0 0 0 0 0 0 0 0 0 0 0 0 0 0 0 0 0 0 0 0 0 0 0 0 0
0 0 0 0 0 0 0 0 0 0 0 0 0 0 0 0 0 0 0 0 0 0 0 0 0 0 0 0 0 0 0 0 0 0 0 0 0 0 0 0 0 0 0
0 0 0 0 0 0 0 0 0 0 0 0 0 0 0 0 0 0 0 0 0 0 0 0 0 0 0 0 0 0 0 0 0 0 0 0 0 0 0 0 0 0 0
0 0 0 0 0 0 0 0 0 0 0 0 0 0 0 0 0 0 0 0 0 0 0 0 0 0 0 0 0 0 0 0 0 0 0 0 0 0 0 0 0 0 0
0 0 0 0 0 0 0 0 0 0 0 0 0 0 0 0 0 0 0 0 0 0 0 0 0 0 0 0 0 0 0 0 0 0 0 0 0 0 0 0 0 0 0
0 0 0 0 0 0 0 0 0 0 0 0 0 0 0 0 0 0 0 0 0 0 0 0 0 0 0 0 0 0 0 0 0 0 0 0 0 0 0 0 0 0 0
0 0 0 0 0 0 0 0 0 0 0 0 0 0 0 0 0 0 0 0 0 0 0 0 0 0 0 0 0 0 0 0 0 0 0 0 0 0 0 0 0 0 0
0 0 0 0 0 0 0 0 0 0 0 0 0 0 0 0 0 0 0 0 0 0 0 0 0 0 0 0 0 0 0 0 0 0 0 0 0 0 0 0 0 0 0
0 0 0 0 0 0 0 0 0 0 0 0 0 0 0 0 0 0 0 0 0 0 0 0 0 0 0 0 0 0 0 0 0 0 0 0 0 0 0 0 0 0 0
0 0 0 0 0 0 0 0 0 0 0 0 0 0 0 0 0 0 0 0 0 0 0 0 0 0 0 0 0 0 0 0 0 0 0 0 0 0 0 0 0 0 0
0 0 0 0 0 0 0 0 0 0 0 0 0 0 0 0 0 0 0 0 0 0 0 0 0 0 0 0 0 0 0 0 0 0 0 0 0 0 0 0 0 0 0
0 0 0 0 0 0 0 0 0 0 0 0 0 0 0 0 0 0 0 0 0 0 0 0 0 0 0 0 0 0 0 0 0 0 0 0 0 0 0 0 0 0 0
1 0 0 0 0 0 0 0 0 0 0 0 0 0 0 0 0 0 0 0 0 0 0 0 0 0 0 0 0 0 0 0 0 0 0 0 0 0 0 0 0 0 0
1 0 0 0 0 0 0 0 0 0 0 0 0 0 0 0 0 0 0 0 0 0 0 0 0 0 0 0 0 0 0 0 0 0 0 0 0 0 0 0 0 0 0
0 0 0 0 0 0 0 0 0 0 0 0 0 0 0 0 0 0 0 0 0 0 0 0 0 0 0 0 0 0 0 0 0 0 0 0 0 0 0 0 0 0 0
0 0 0 0 0 0 0 0 0 0 0 0 0 0 0 0 0 0 0 0 0 0 0 0 0 0 0 0 0 0 0 0 0 0 0 0 0 0 0 0 0 0 0
0 0 0 0 0 0 0 0 0 0 0 0 0 0 0 0 0 0 0 0 0 0 0 0 0 0 0 0 0 0 0 0 0 0 0 0 0 0 0 0 0 0 0
0 0 0 0 0 0 0 0 0 0 0 0 0 0 0 0 0 0 0 0 0 0 0 0 0 0 0 0 0 0 0 0 0 0 0 0 0 0 0 0 0 0 0
0 0 0 0 0 0 0 0 0 0 0 0 0 0 0 0 0 0 0 0 0 0 0 0 0 0 0 0 0 0 0 0 0 0 0 0 0 0 0 0 0 0 0
0 0 0 0 0 0 0 0 0 0 0 0 0 0 0 0 0 0 0 0 0 0 0 0 0 0 0 0 0 0 0 0 0 0 0 0 0 0 0 0 0 0 0
0 0 0 0 0 0 0 0 0 0 0 0 0 0 0 0 0 0 0 0 0 0 0 0 0 0 0 0 0 0 0 0 0 0 0 0 0 0 0 0 0 0 0
0 0 0 0 0 0 0 0 0 0 0 0 0 0 0 0 0 0 0 0 0 0 0 0 0 0 0 0 0 0 0 0 0 0 0 0 0 0 0 0 0 0 0
0 0 0 0 0 0 0 0 0 0 0 0 0 0 0 0 0 0 0 0 0 0 0 0 0 0 0 0 0 0 0 0 0 0 0 0 0 0 0 0 0 0 0
0 0 0 0 0 0 0 0 0 0 0 0 0 0 0 0 0 0 0 0 0 0 0 0 0 0 0 0 0 0 0 0 0 0 0 0 0 0 0 0 0 0 0
0 0 0 0 0 0 0 0 0 0 0 0 0 0 0 0 0 0 0 0 0 0 0 0 0 0 0 0 0 0 0 0 0 0 0 0 0 0 0 0 0 0 0
0 0 0 0 0 0 0 0 0 0 0 0 0 0 0 0 0 0 0 0 0 0 0 0 0 0 0 0 0 0 0 0 0 0 0 0 0 0 0 0 0 0 0
Wind_Speed
6 5 4 4 4 4 4 4 4 4 4 4 4 4 4 5 4 4 2 5 6 7 7 7 7 7 7 6 6 5 5 4 4 3 2 2 1 1 1 2 2 3 4
5 5 5 5 4 4 4 4 5 4 4 4 5 5 6 6 6 6 5 5 8 9 10 10 9 9 9 9 8 8 7 6 6 5 5 4 3 2 1 1 1 1 2
6 5 5 5 5 5 5 4 5 4 4 4 6 6 6 6 6 7 7 5 5 9 11 12 12 11 11 11 10 10 10 9 8 8 7 6 6 5 4 3 3 2 2
8 6 5 5 6 5 5 5 5 5 5 5 5 5 5 5 8 8 7 7 6 5 8 12 12 13 12 12 12 12 11 11 11 10 10 9 8 7 7 6 5 5 4
9 7 6 6 6 5 5 5 5 5 5 6 5 5 6 6 7 7 9 9 8 7 7 7 10 11 11 13 13 13 13 12 12 12 12 12 11 10 9 9 8 7 7
9 8 6 8 7 6 6 6 7 6 6 5 5 6 7 7 7 7 9 8 7 8 8 7 7 8 11 12 14 14 14 13 12 13 13 13 13 12 11 11 10 10 9
9 8 6 7 7 7 8 8 7 7 6 5 5 6 7 9 9 7 7 7 7 7 7 7 6 6 5 9 12 13 14 14 13 13 14 14 14 14 14 13 12 12 11
8 7 8 7 7 7 8 8 8 5 5 5 5 5 5 5 6 6 5 5 6 5 6 6 6 6 5 4 5 9 12 13 14 14 14 14 14 16 16 15 14 14 13
8 8 9 8 8 8 7 9 9 9 7 6 7 6 5 5 3 3 4 4 4 4 4 4 5 5 5 5 4 5 8 11 13 14 14 14 14 14 16 16 15 13 12
7 7 8 8 8 7 8 8 8 8 8 7 6 7 8 6 5 4 3 3 3 4 4 2 3 3 3 3 4 5 6 8 12 13 14 13 14 14 15 15 13 11 11
6 6 7 7 7 7 8 8 7 8 7 7 6 5 7 7 7 6 7 4 3 3 2 2 2 2 2 3 3 4 5 8 10 12 12 12 12 13 13 12 11 10 8
4 6 6 6 6 6 7 7 7 8 7 8 6 5 5 5 6 7 8 7 5 3 2 1 1 2 2 2 3 4 5 6 8 9 10 10 10 9 8 8 8 7 7
4 5 5 5 5 5 6 6 6 6 7 7 7 6 6 6 5 5 6 7 6 3 2 1 1 1 1 2 2 4 3 5 6 7 7 7 6 5 5 5 5 5 5
3 3 4 4 5 5 5 5 4 5 5 6 6 6 4 4 4 4 5 5 5 4 3 3 1 1 2 2 3 3 2 4 4 4 5 5 4 4 4 4 4 4 5
2 3 3 4 4 4 4 4 4 4 4 3 3 3 3 2 2 3 3 4 4 5 4 2 1 2 2 2 3 2 2 5 4 4 4 4 4 4 4 3 3 4 5
2 2 2 3 2 2 3 3 3 2 3 2 1 2 2 1 1 1 1 2 3 4 2 1 1 2 2 2 3 2 3 4 5 5 5 4 3 4 3 3 4 5 5
1 2 1 1 1 1 1 2 2 2 2 2 1 2 1 1 1 0 0 0 0 1 2 2 1 1 1 2 2 2 2 2 2 6 6 5 4 4 4 4 4 5 5
1 1 1 1 1 1 1 2 2 2 2 2 1 2 2 2 2 2 1 1 1 0 1 2 2 1 1 1 2 2 2 2 2 5 6 5 4 4 4 4 5 6 7
2 2 2 2 2 2 2 2 2 2 3 2 2 2 2 2 3 2 2 2 1 1 1 2 2 1 0 0 1 1 1 2 2 3 4 4 4 5 6 6 7 7 8
2 2 3 2 2 2 2 3 3 4 4 4 4 3 3 2 3 3 2 2 2 2 2 2 2 1 1 0 1 1 1 2 2 2 2 3 4 6 6 6 7 7 8
3 3 3 3 3 2 2 3 4 4 5 5 4 4 4 5 5 3 2 2 2 2 2 2 1 1 1 0 1 1 2 2 2 1 3 3 3 3 3 4 6 7 9
3 3 3 3 3 3 5 5 4 4 4 5 5 4 5 5 6 6 6 4 3 1 1 1 1 1 1 0 0 1 2 2 2 1 4 4 3 4 3 3 5 8 10
3 3 3 3 4 5 6 6 5 4 4 4 4 4 3 3 4 3 5 5 5 4 2 1 1 1 1 1 1 2 2 3 3 3 4 4 3 4 3 4 7 9 10
3 3 3 3 4 5 6 7 7 4 4 4 3 3 3 3 2 2 2 2 2 2 2 1 1 1 1 1 1 2 2 3 4 3 3 4 3 4 4 5 4 6 7
3 3 3 3 4 5 6 7 5 3 3 3 3 2 2 2 4 2 2 1 1 1 2 2 2 1 1 2 2 2 2 3 3 2 1 3 3 5 5 4 2 4 6
4 4 3 3 3 4 5 6 5 2 3 3 2 2 2 2 3 2 1 1 1 0 0 1 1 1 1 2 3 3 3 3 3 3 1 2 3 4 5 3 3 4 6
Wind_Direction
189 185 190 189 196 194 194 204 213 207 219 224 231 242 246 248 250 248 216 197 238 249 246 238 231 224 220 219 214 208 204 201 196 191 185 175 155 102 58 43 41 42 38
196 193 198 199 205 208 210 214 219 221 229 237 243 243 247 248 249 252 258 215 217 236 245 244 241 236 232 228 224 219 215 215 214 212 212 211 215 222 232 259 323 3 7
201 202 207 206 210 213 215 221 222 234 240 244 248 251 255 255 252 251 251 255 233 219 232 244 245 243 240 237 233 227 222 220 220 220 220 221 222 226 232 239 249 262 285
206 206 209 214 214 213 216 219 226 231 234 241 249 249 249 249 255 255 252 246 248 242 224 229 243 246 245 243 241 237 230 225 223 223 223 224 225 227 231 235 240 247 254
207 210 215 218 213 215 220 221 230 235 242 246 252 257 256 252 253 251 253 251 246 244 249 221 227 243 249 249 249 247 241 233 227 226 225 226 226 229 232 235 238 244 248
208 212 216 221 216 216 219 219 226 231 245 254 258 260 258 255 251 249 251 251 246 243 247 251 238 229 233 246 251 254 252 245 236 231 229 229 229 230 233 237 242 245 248
207 211 216 220 214 219 223 225 226 232 235 239 253 262 256 247 247 244 244 248 245 243 247 249 250 254 236 229 242 252 255 253 248 241 236 234 233 233 234 236 241 246 249
209 209 216 218 214 221 226 226 220 227 230 217 234 261 274 255 227 232 237 241 250 243 243 247 250 250 258 253 237 242 253 256 255 251 245 240 237 237 236 238 243 247 247
212 213 220 223 222 223 226 224 218 222 230 221 223 235 253 264 286 214 222 231 238 240 247 248 252 256 258 259 265 246 252 258 258 259 256 248 242 244 241 243 244 243 244
216 219 223 225 226 225 231 230 224 223 231 234 224 234 248 273 272 271 220 218 234 249 253 251 259 262 268 267 269 282 275 263 259 259 259 256 251 249 248 246 244 245 246
215 219 224 225 229 229 233 234 230 228 228 235 230 223 234 243 247 257 266 248 227 228 249 266 274 277 282 277 283 293 284 268 264 263 261 263 265 261 259 251 247 249 249
212 218 223 227 232 232 234 234 233 231 231 235 236 229 226 229 228 233 250 256 253 231 221 246 275 287 299 295 302 318 301 285 278 274 271 272 278 281 278 269 261 253 248
213 218 220 226 231 236 238 237 236 236 233 233 234 234 235 239 242 240 250 259 256 233 214 202 276 296 315 314 324 339 319 309 300 292 286 287 295 303 305 296 287 273 269
215 218 223 229 235 238 237 234 234 235 235 235 239 238 237 240 240 237 246 254 255 237 220 210 131 17 354 341 3 343 340 346 324 316 312 319 335 341 326 306 293 295 289
209 213 217 226 232 239 241 236 232 234 231 235 241 240 242 253 256 253 251 248 250 251 235 193 153 56 18 17 9 5 19 19 5 353 341 339 345 339 325 315 302 292 285
195 209 215 221 224 231 233 225 223 226 212 209 216 217 223 234 250 265 251 249 253 259 245 119 99 59 41 46 27 19 31 14 11 355 341 338 333 321 312 308 291 281 278
181 196 195 196 198 203 208 204 199 197 190 173 165 169 158 145 143 103 101 137 239 248 227 132 94 65 49 38 25 24 14 358 8 6 353 344 332 316 304 296 290 286 282
123 126 137 146 131 132 149 171 158 154 161 155 144 137 126 112 108 89 94 97 91 31 199 166 133 115 65 26 9 20 15 358 352 2 350 339 330 324 319 311 299 289 284
110 106 111 113 106 98 103 110 120 117 109 102 99 111 113 122 112 93 89 89 83 77 72 129 122 106 103 39 347 360 352 343 349 353 348 343 333 320 308 299 291 289 286
108 98 90 89 92 95 103 112 116 114 105 94 86 84 88 101 110 112 100 95 93 97 97 107 114 126 128 54 279 317 311 331 330 336 327 320 310 301 294 291 289 289 289
108 106 107 103 100 100 109 120 118 117 116 108 96 88 81 81 83 87 91 98 102 104 110 122 136 160 167 202 282 333 305 319 315 324 313 306 299 286 276 266 271 276 277
121 119 120 118 111 103 115 119 124 123 122 121 114 104 97 92 90 89 85 74 65 81 122 147 189 210 206 230 289 290 306 314 301 1 316 304 293 282 280 277 287 284 279
130 128 123 117 112 114 126 125 122 122 122 121 123 122 106 97 98 102 95 89 75 62 44 282 219 238 244 246 270 277 298 300 292 323 312 289 284 282 287 282 287 286 282
145 140 133 130 125 123 128 126 124 117 114 119 124 131 130 127 112 110 103 85 77 73 51 340 310 316 308 279 246 254 267 279 280 272 273 277 297 298 301 289 286 286 282
153 152 149 150 145 138 140 140 138 133 132 132 129 133 141 147 142 142 140 134 131 108 84 55 19 7 329 296 279 255 257 276 285 272 257 276 301 310 298 283 269 270 279
164 158 154 161 162 158 158 162 165 160 156 154 155 157 170 183 166 177 201 201 223 195 199 200 210 204 231 218 246 255 252 260 271 277 187 276 300 320 302 285 280 273 270